Wind_Speed
7 6 6 6 6 7 7 7 6 6 6 6 6 6 6 6 5 4 5 4 3 4 3 2 2 1 4 4 6 14 13 13 2 11 12 12 2 4 3 4 7 4 5 6 6
7 6 7 7 8 8 9 9 8 7 7 6 5 5 7 7 7 8 7 6 4 4 4 4 3 2 1 5 3 10 13 16 9 5 7 5 10 10 2 6 6 8 4 8 8
8 8 9 10 11 12 13 14 14 13 11 8 6 5 5 6 9 12 8 8 6 5 5 6 7 6 5 5 8 9 4 5 10 14 20 20 19 16 2 2 1 4 2 4 5
7 8 9 11 12 13 15 15 15 15 14 12 10 8 6 5 9 7 11 10 8 7 7 8 8 9 7 3 2 7 4 2 7 12 17 17 14 3 2 4 6 3 2 5 4
6 7 8 9 11 12 14 16 16 16 16 15 13 11 9 6 8 8 12 12 11 9 8 11 11 11 8 6 5 8 6 5 4 8 10 4 3 4 3 2 4 5 3 5 5
6 7 7 8 10 12 15 17 17 18 18 18 16 14 12 9 10 9 10 12 15 13 11 12 14 10 8 7 15 2 8 6 6 5 7 7 8 5 7 13 12 9 2 4 2
8 8 8 8 9 12 14 18 18 18 20 20 17 13 12 10 12 12 10 13 15 16 16 16 12 12 13 14 12 7 5 6 8 3 3 2 6 8 15 21 12 9 5 6 6
9 10 10 10 11 13 15 18 19 20 21 20 18 15 11 10 11 11 12 13 15 16 17 16 11 16 13 12 10 9 5 5 6 16 7 2 5 9 13 14 14 10 8 6 5
9 10 11 12 13 15 17 18 20 22 21 20 19 15 13 10 12 12 13 12 13 16 17 18 20 17 15 14 11 6 13 8 11 17 8 7 5 7 10 8 13 11 7 8 5
10 11 12 14 15 16 17 18 22 23 21 20 17 15 12 10 11 12 14 14 14 15 16 19 19 18 17 15 13 12 10 9 11 6 2 6 8 5 6 4 9 9 8 9 5
10 12 13 15 17 17 18 19 23 23 20 17 14 13 12 10 10 11 12 12 13 14 15 17 17 15 14 17 11 9 17 22 13 11 12 2 7 6 3 1 3 9 8 10 9
12 12 13 15 18 18 19 22 23 21 18 17 14 11 10 10 9 9 10 10 12 13 14 13 12 12 17 17 6 11 14 16 15 14 12 7 10 11 6 3 5 4 8 13 13
13 13 13 14 16 20 22 22 23 22 18 14 8 7 8 7 6 6 7 9 10 12 13 13 16 14 16 17 15 12 12 19 16 26 10 9 8 11 10 10 7 7 7 16 20
14 14 14 15 17 19 21 21 22 21 17 7 7 7 9 7 6 5 6 7 9 11 12 11 15 16 15 18 16 11 11 23 21 16 15 20 20 4 10 10 9 7 6 7 19
15 16 15 16 16 18 19 20 20 19 16 16 11 11 8 6 4 3 4 5 6 10 10 11 9 14 15 20 21 25 26 23 21 16 13 18 22 15 10 9 11 8 10 14 23
17 17 17 17 16 16 17 17 16 14 12 15 14 8 8 6 1 1 1 3 4 3 6 3 4 6 9 15 15 25 24 23 24 18 7 13 17 19 12 10 9 15 11 10 23
21 20 19 19 18 16 15 15 14 11 7 13 17 13 10 2 3 1 2 2 3 7 8 9 8 6 8 6 14 26 16 12 6 10 18 15 18 20 19 14 6 3 4 8 18
27 25 23 22 20 18 15 14 12 10 5 14 16 13 7 5 17 1 5 7 12 14 8 10 17 17 10 8 9 11 15 12 13 21 16 22 22 18 20 14 14 14 9 12 17
33 30 28 24 23 21 17 14 16 15 4 13 12 3 2 12 9 15 4 4 2 10 10 10 13 14 13 5 7 8 7 1 17 16 15 15 23 31 22 18 18 25 15 17 17
38 34 33 28 27 24 20 15 15 15 9 11 8 8 8 13 12 8 4 3 11 10 13 12 7 6 13 10 6 12 12 18 20 20 18 23 18 20 26 20 22 26 21 22 23
37 37 37 32 30 27 20 19 22 20 11 11 14 16 10 11 11 9 7 13 17 18 10 15 11 6 8 15 12 14 19 21 23 25 26 24 15 17 23 25 29 26 30 27 26
33 30 34 34 34 30 23 22 23 23 15 14 18 16 19 17 14 3 14 18 23 17 9 24 20 10 11 14 11 18 23 23 26 28 32 30 23 25 23 25 26 16 28 19 21
30 30 34 29 33 31 27 26 25 25 16 21 17 16 20 29 24 23 25 20 23 26 23 17 16 16 15 14 16 19 28 21 24 29 32 35 26 15 19 21 25 8 18 34 24
31 29 33 36 30 33 32 29 29 25 20 21 20 19 20 25 27 22 31 27 28 23 23 18 21 25 13 14 12 11 9 13 17 18 27 29 36 39 29 28 33 12 12 9 15
33 33 40 38 31 36 37 31 35 33 22 20 28 23 22 20 20 28 29 24 26 24 17 16 18 25 24 14 10 10 12 18 19 15 15 29 31 34 27 21 24 23 15 12 14
32 29 32 29 28 29 35 34 30 31 28 22 24 24 24 26 21 18 21 27 33 31 19 16 15 23 31 23 25 15 17 13 15 14 22 28 22 25 22 16 13 10 17 19 20
32 29 32 31 31 33 28 29 35 36 30 31 26 22 21 23 22 23 29 26 26 23 24 18 21 23 26 31 22 21 19 16 23 16 18 26 19 22 27 25 23 19 17 18 22
Wind_Direction
15 1 359 9 19 18 14 9 3 348 329 310 290 277 262 262 277 287 270 299 249 223 220 203 246 289 302 316 347 349 2 38 160 163 207 216 253 126 178 303 30 13 339 353 350
26 27 45 50 52 48 44 37 24 8 356 354 323 286 268 255 250 258 275 276 270 245 225 228 251 269 191 6 215 343 360 13 26 359 292 212 200 239 247 3 352 19 61 358 338
31 52 62 59 53 49 42 40 34 29 23 8 353 324 301 257 238 245 260 262 262 252 233 216 213 227 244 263 185 18 11 350 354 346 332 245 211 177 237 334 203 94 303 319 330
46 60 63 53 48 44 39 32 27 19 12 6 357 341 310 291 248 233 240 248 250 248 240 223 220 233 238 276 205 287 336 349 318 355 356 96 134 74 346 328 58 319 345 322 2
63 57 45 41 39 35 28 17 14 11 6 358 347 333 313 272 260 249 243 240 241 241 234 235 230 232 242 223 193 149 310 282 326 6 7 353 113 314 289 146 336 314 314 337 321
22 15 17 22 23 13 6 5 2 359 357 349 338 327 310 267 252 246 253 249 239 237 231 231 236 244 226 232 203 101 38 1 317 14 10 19 357 296 280 250 262 280 300 270 238
7 4 358 357 1 357 351 351 352 349 347 344 333 320 307 288 259 242 240 244 244 236 232 232 237 238 248 237 228 261 292 320 314 341 269 302 325 320 321 267 259 253 238 242 238
355 349 345 340 338 339 342 345 345 341 338 337 330 317 300 280 268 252 241 241 238 237 231 234 232 224 228 265 252 270 256 236 284 281 259 274 328 326 333 259 254 259 254 217 224
348 344 338 333 333 336 337 341 343 338 333 329 323 312 298 281 262 250 235 241 235 235 235 225 218 222 221 216 215 246 290 268 273 293 28 341 354 341 343 228 266 244 227 222 183
336 338 338 338 336 334 333 337 339 334 327 323 316 305 292 278 263 250 239 236 230 228 230 231 227 221 218 221 205 205 265 280 259 295 247 337 358 355 10 33 259 258 251 216 218
323 329 334 337 337 333 331 333 336 331 322 316 311 300 289 279 260 246 239 231 223 221 223 225 227 227 213 217 230 241 254 264 260 261 269 331 334 358 350 349 193 291 267 246 247
311 318 325 333 334 333 333 335 335 331 324 323 302 295 290 286 267 250 240 232 227 220 222 224 217 216 214 201 181 270 275 266 262 296 231 241 285 278 314 304 260 250 233 264 240
304 309 317 325 332 333 335 337 337 331 326 314 310 301 306 294 253 247 233 230 220 220 222 213 217 194 233 202 195 239 272 263 253 264 315 323 301 260 276 279 274 257 263 236 232
298 303 310 319 327 331 334 337 332 331 325 319 340 329 321 301 273 236 234 229 225 224 228 222 231 212 203 225 194 229 236 257 248 257 280 281 270 258 250 272 277 291 251 223 249
293 299 306 311 318 325 330 333 331 328 318 333 347 333 322 307 293 245 238 222 237 224 212 198 218 222 228 216 207 199 243 261 272 268 280 285 273 254 259 297 294 297 265 260 217
289 293 298 301 306 314 323 329 324 324 331 329 331 340 303 280 303 251 248 247 233 215 101 15 338 342 285 259 240 204 242 248 254 253 239 212 245 247 270 255 266 297 268 280 211
289 290 291 293 295 300 310 319 316 313 339 326 325 335 347 4 29 237 226 241 278 143 99 86 30 359 339 270 210 198 222 251 190 241 249 250 238 251 259 256 224 280 258 183 202
286 286 286 285 284 285 292 301 293 285 18 276 294 285 316 293 333 121 227 161 75 93 69 346 319 307 321 295 237 220 238 227 233 252 256 248 249 244 251 243 222 225 238 209 205
280 280 277 275 273 274 277 282 282 276 194 235 280 35 226 240 298 330 298 100 269 216 158 201 237 268 316 251 231 222 196 298 253 264 294 270 263 244 233 234 231 227 207 217 209
278 275 270 270 266 266 268 265 274 274 281 248 257 199 273 231 273 315 337 269 236 262 233 184 179 293 329 320 219 240 205 221 239 251 251 268 277 283 240 244 247 216 216 209 211
277 272 267 264 260 260 263 251 252 254 264 239 217 194 211 257 208 227 268 269 275 286 217 220 201 238 270 278 252 208 218 233 232 238 248 256 272 261 234 241 260 209 207 196 191
276 278 269 257 255 255 250 247 248 258 250 247 239 236 213 216 242 281 228 233 259 281 268 222 216 218 261 259 282 246 244 243 240 243 247 254 258 275 275 264 225 230 175 208 192
275 269 271 265 252 248 243 238 241 244 235 264 234 227 224 220 219 222 236 242 253 261 269 257 230 225 245 253 276 257 268 281 261 253 245 255 246 282 264 254 213 50 193 191 192
271 267 259 253 248 242 237 230 225 226 237 246 257 238 221 230 238 227 221 251 243 251 264 250 219 227 234 266 299 301 290 258 286 265 244 258 238 258 276 289 242 309 144 151 195
269 261 265 267 251 245 234 222 229 218 218 234 244 246 237 238 233 235 212 241 266 267 271 251 228 219 221 276 301 295 261 251 258 260 259 252 259 272 281 314 302 309 292 254 245
269 264 263 258 251 248 242 230 225 224 217 224 238 252 260 256 241 210 221 228 240 261 262 256 230 221 227 246 256 271 277 252 228 245 252 264 280 276 280 294 268 295 271 240 242
262 256 246 241 237 235 236 242 218 208 217 208 226 242 250 257 245 231 235 238 244 250 267 265 256 244 227 230 236 250 263 261 284 235 267 267 248 256 262 279 307 259 247 268 253
Height
5891 5890 5889 5889 5888 5887 5886 5885 5885 5883 5882 5882 5882 5882 5883 5883 5883 5883 5883 5884 5884 5885 5886 5886 5885 5886 5884 5886 5887 5880 5881 5883 5878 5881 5885 5884 5885 5887 5886 5888 5888 5889 5891 5888 5888
5891 5891 5890 5889 5888 5887 5887 5885 5884 5883 5882 5881 5881 5881 5881 5881 5882 5882 5883 5882 5883 5884 5885 5886 5886 5885 5885 5885 5882 5888 5884 5885 5885 5885 5886 5876 5883 5887 5887 5886 5886 5886 5890 5891 5887
5892 5891 5891 5890 5889 5888 5887 5886 5885 5883 5881 5880 5880 5879 5879 5879 5880 5879 5880 5881 5882 5883 5884 5885 5884 5884 5885 5882 5883 5882 5887 5886 5886 5885 5880 5876 5884 5889 5888 5886 5887 5888 5889 5889 5890
5893 5892 5892 5891 5890 5888 5887 5886 5884 5883 5881 5879 5878 5878 5877 5877 5878 5878 5878 5879 5880 5881 5882 5883 5883 5883 5884 5883 5884 5883 5886 5887 5887 5884 5881 5875 5880 5885 5888 5887 5888 5888 5888 5889 5891
5894 5893 5892 5891 5890 5889 5887 5886 5884 5882 5880 5878 5877 5875 5875 5875 5874 5875 5875 5876 5878 5879 5881 5880 5880 5881 5882 5883 5882 5881 5883 5880 5882 5886 5887 5886 5888 5890 5890 5889 5888 5889 5888 5890 5891
5894 5893 5892 5891 5890 5888 5887 5885 5883 5881 5879 5877 5875 5873 5872 5872 5871 5872 5873 5873 5875 5876 5878 5878 5878 5879 5880 5880 5877 5875 5887 5881 5882 5884 5886 5887 5889 5890 5892 5892 5892 5892 5890 5891 5892
5894 5893 5892 5890 5889 5887 5886 5883 5881 5879 5876 5874 5872 5870 5869 5869 5868 5869 5870 5871 5872 5873 5875 5874 5876 5877 5877 5876 5878 5883 5887 5885 5883 5885 5886 5888 5891 5892 5890 5888 5890 5892 5891 5891 5892
5894 5892 5891 5889 5888 5886 5884 5881 5879 5876 5873 5871 5869 5867 5865 5865 5864 5865 5867 5868 5868 5870 5872 5873 5875 5874 5876 5876 5880 5880 5884 5885 5883 5883 5883 5886 5889 5889 5888 5886 5889 5892 5893 5893 5893
5893 5891 5890 5888 5886 5883 5881 5879 5876 5873 5870 5867 5865 5863 5862 5862 5861 5862 5863 5864 5865 5867 5869 5870 5870 5872 5875 5874 5875 5879 5882 5881 5883 5886 5887 5890 5887 5890 5890 5890 5890 5892 5894 5893 5894
5891 5889 5888 5885 5883 5881 5879 5876 5873 5870 5867 5864 5861 5861 5859 5859 5858 5858 5859 5860 5862 5863 5865 5867 5868 5870 5873 5876 5875 5878 5880 5881 5883 5885 5889 5890 5891 5890 5891 5892 5892 5893 5894 5893 5894
5888 5887 5885 5883 5881 5879 5877 5874 5872 5868 5864 5861 5858 5857 5856 5855 5855 5855 5855 5857 5858 5860 5862 5863 5866 5869 5871 5873 5875 5877 5878 5877 5882 5885 5887 5889 5891 5891 5891 5892 5894 5893 5892 5893 5893
5886 5884 5883 5881 5878 5876 5874 5871 5868 5865 5861 5857 5855 5853 5852 5852 5852 5852 5853 5855 5856 5857 5858 5862 5864 5867 5867 5870 5872 5874 5876 5875 5880 5879 5879 5884 5889 5891 5891 5891 5891 5892 5892 5890 5890
5883 5881 5880 5878 5875 5873 5870 5867 5863 5860 5858 5856 5853 5852 5851 5850 5850 5850 5851 5852 5853 5854 5856 5859 5860 5862 5865 5865 5869 5873 5874 5874 5876 5873 5878 5878 5885 5886 5887 5888 5889 5888 5890 5890 5889
5879 5878 5876 5875 5873 5870 5867 5864 5861 5857 5855 5855 5852 5850 5849 5849 5848 5849 5849 5851 5851 5852 5853 5856 5857 5857 5862 5864 5867 5870 5867 5869 5872 5875 5879 5879 5880 5884 5884 5885 5887 5887 5887 5890 5890
5875 5874 5872 5870 5869 5866 5865 5861 5857 5855 5853 5851 5850 5849 5848 5848 5848 5848 5849 5849 5850 5849 5852 5853 5855 5856 5857 5862 5863 5868 5866 5867 5869 5874 5875 5878 5876 5879 5881 5884 5885 5885 5884 5885 5884
5870 5869 5868 5867 5865 5863 5861 5858 5856 5855 5851 5850 5849 5849 5847 5846 5847 5848 5848 5849 5849 5850 5851 5853 5854 5856 5857 5857 5859 5865 5862 5866 5867 5870 5873 5872 5871 5871 5877 5881 5882 5881 5880 5879 5880
5865 5864 5864 5862 5861 5860 5858 5856 5855 5852 5852 5850 5847 5846 5846 5845 5848 5848 5849 5850 5849 5849 5850 5852 5854 5856 5855 5854 5856 5859 5860 5862 5865 5866 5868 5869 5869 5870 5871 5874 5876 5878 5879 5879 5882
5859 5859 5858 5857 5856 5856 5854 5854 5852 5850 5849 5851 5851 5848 5848 5848 5847 5848 5849 5847 5848 5848 5850 5851 5851 5853 5854 5853 5854 5855 5859 5860 5859 5860 5862 5862 5863 5865 5866 5870 5871 5872 5876 5876 5879
5851 5852 5850 5851 5850 5850 5851 5850 5848 5846 5847 5849 5848 5848 5849 5849 5849 5847 5848 5846 5847 5850 5851 5850 5851 5851 5851 5851 5852 5854 5854 5859 5859 5857 5857 5858 5859 5861 5864 5863 5866 5867 5868 5873 5876
5840 5843 5841 5843 5842 5844 5846 5847 5844 5844 5841 5844 5847 5848 5847 5848 5847 5847 5847 5848 5847 5849 5850 5849 5849 5850 5850 5851 5852 5852 5854 5854 5854 5853 5854 5852 5853 5856 5858 5859 5860 5866 5865 5862 5869
5829 5830 5831 5834 5834 5836 5840 5839 5838 5837 5838 5841 5843 5843 5845 5845 5845 5846 5848 5846 5845 5844 5847 5849 5849 5849 5850 5848 5848 5848 5850 5850 5849 5850 5849 5850 5853 5851 5849 5852 5850 5855 5857 5856 5858
5820 5819 5819 5823 5825 5827 5832 5831 5832 5831 5831 5835 5837 5838 5841 5841 5843 5843 5844 5842 5840 5843 5846 5843 5845 5847 5845 5845 5848 5847 5844 5846 5845 5845 5845 5846 5849 5850 5848 5846 5847 5850 5845 5849 5849
5810 5809 5807 5810 5814 5817 5823 5823 5825 5825 5826 5829 5832 5834 5835 5835 5838 5840 5836 5837 5838 5838 5840 5844 5845 5842 5840 5843 5844 5844 5843 5846 5844 5842 5842 5843 5848 5844 5842 5843 5849 5815 5840 5843 5846
5800 5800 5795 5795 5804 5806 5810 5815 5816 5819 5823 5826 5825 5827 5828 5830 5832 5833 5834 5831 5831 5834 5834 5836 5837 5838 5837 5835 5840 5839 5839 5838 5838 5836 5840 5836 5842 5841 5841 5840 5834 5830 5816 5833 5842
5787 5788 5785 5788 5792 5793 5797 5804 5807 5809 5812 5819 5820 5821 5822 5823 5825 5827 5831 5828 5826 5828 5831 5831 5833 5833 5834 5832 5835 5834 5836 5834 5834 5835 5836 5836 5837 5838 5840 5840 5838 5841 5841 5840 5849
5775 5779 5777 5780 5782 5786 5791 5796 5798 5804 5807 5807 5813 5817 5817 5818 5820 5821 5823 5823 5824 5824 5825 5826 5829 5829 5830 5830 5829 5829 5829 5830 5830 5830 5833 5830 5831 5835 5837 5839 5843 5843 5844 5845 5847
5763 5766 5766 5770 5770 5774 5782 5786 5787 5795 5799 5799 5802 5807 5809 5810 5813 5816 5814 5818 5818 5818 5819 5821 5821 5823 5825 5825 5825 5828 5827 5827 5825 5826 5825 5825 5829 5830 5832 5833 5840 5839 5844 5846 5845